星链-4499 (STARLINK-4499 )

导读 | 豆包AI

STARLINK-4499是美国SpaceX星链卫星互联网项目中的一颗卫星,于2022年8月10日发射升空,作为星链低轨星座部署计划的组成部分,它旨在为全球提供高速低延迟的互联网接入服务,进一步拓展星链星座的覆盖范围,推进项目全球组网进程。

基本信息
目录编号:
53402
目录名称:
STARLINK-4499
国际标识:
2022-097Q
轨道中心:
EARTH
卫星名称:
星链-4499
卫星全名:
星链-4499 (STARLINK-4499 )
卫星状态:
在轨 (已飞行1313 天)
发射日期:
2022-08-10 UTC
国别 :
美国 (US)
星等 :
--
轨道信息
数据来源 国际轨道数据 AOE轨道数据
星历时间 2026-03-15T02:21:39+0800
12小时前
查看轨道信息
2026-03-14T01:00:00+0800
1天前
查看轨道信息
半长轴 6917.894km 6917.901km
偏心率 0.0001194 0.0001137
轨道倾角 53.217° 53.217°
近地点辐角 101.086° 88.073°
升交点赤经 101.338° 106.081°
平近点角 259.026° 289.076°
近地点 538.931km 538.977km
远地点 540.583km 540.551km
周期 95.438分钟 95.438分钟
每日圈数 15.088358 15.088333
详细信息
固有亮度:
5
最大亮度:
2.5
卫星平台:
Starlink v1.5
覆盖范围:
全球
运营商:
太空探索技术公司
运营商所在国:
美国
制造商(研发单位):
太空探索技术公司
制造商所在国:
美国
使用方式:
暂无
卫星简介
星链(Starlink)计划是由太空探索技术公司(SpaceX)提出的一个巨型低轨卫星互联网星座项目,计划在2019年至2024年间在太空搭建由约1.2万颗卫星组成的“星链”网络,其中1584颗将部署在地球上空550千米处的近地轨道,并从2020年开始工作。该卫星仍在工作。
2D轨道图
3D轨道图
轨道高度分析图
轨道倾角分析图
轨道综合分析图
查看轨道综合分析图